Location: Ljubljana
(46.0553°N, 14.5144°E)
Time: 13:41:09
(UTC+01:00)

N. Korean satellite - Visible Passes

Search period start: 28 October 2020 00:00
Search period end: 07 November 2020 00:00
Orbit: 452 x 505 km, 97.2° (Epoch: 27 October)

Date Brightness Start Highest point End Pass type
(mag) Time Alt. Az. Time Alt. Az. Time Alt. Az.
28 Oct 10.2 04:28:44 10° ENE 04:29:24 10° E 04:30:04 10° E visible
28 Oct 6.6 05:59:44 10° N 06:03:04 50° WNW 06:06:23 10° SSW visible
29 Oct 6.7 05:33:33 10° NNE 05:36:58 71° ESE 05:40:22 10° S visible
29 Oct 9.9 17:45:36 10° SW 17:47:46 15° W 17:49:54 10° NW visible
30 Oct 8.4 05:07:39 10° NNE 05:10:46 31° E 05:13:51 10° SSE visible
30 Oct 8.9 17:18:19 10° SSW 17:21:28 30° W 17:24:35 10° NNW visible
31 Oct 9.7 04:42:18 10° NE 04:44:28 16° E 04:46:37 10° SE visible
01 Nov 6.3 05:48:27 10° N 05:51:51 72° WNW 05:55:16 10° SSW visible
02 Nov 7.4 05:22:22 10° NNE 05:25:42 50° E 05:29:02 10° S visible
02 Nov 9.7 17:33:47 10° SW 17:36:26 20° W 17:39:05 10° NW visible
03 Nov 9.0 04:56:38 10° NE 04:59:26 23° E 05:02:16 10° SSE visible
04 Nov 10.1 04:31:45 10° ENE 04:33:05 12° E 04:34:25 10° ESE visible
04 Nov 6.7 06:03:24 10° N 06:06:42 45° WNW 06:09:59 10° SW visible
05 Nov 6.5 05:37:08 10° NNE 05:40:34 81° ESE 05:44:00 10° S visible
05 Nov 10.0 17:49:38 10° WSW 17:51:24 13° W 17:53:11 10° WNW visible
06 Nov 8.2 05:11:10 10° NNE 05:14:21 36° E 05:17:33 10° SSE visible
06 Nov 9.1 17:22:05 10° SSW 17:25:04 26° W 17:28:02 10° NW visible
